Location: Capelle
(50.3413°N, 1.9974°E)
Time: 01:04:06
(UTC+00:00)

Meteor 1-21 - Pass Details

Date: 12 January 2026
Orbit: 845 x 885 km, 81.2° (Epoch: 18 February)

Event Time Altitude Azimuth Distance (km) Brightness Sun altitude
Rises 17:52:49 0° 175° (S) 3,406 7.5 -15.3°
Reaches altitude 10° 17:55:17 10° 171° (S) 2,471 6.7 -15.6°
Maximum altitude 18:00:42 54° 95° (E) 1,023 4.3 -16.5°
Drops below altitude 10° 18:06:09 10° 20° (NNE) 2,479 6.3 -17.3°
Enters shadow 18:07:03 - 18° (NNE) 2,815 6.6 -17.5°
